STARLINK-1272, 45386

Orbit data source: Space-Track

STARLINK-1272, 45386 is a payload satellite owned by SpaceX/Seattle (US) in LEO that was launched on Wed, 18 Mar 2020 UTC via an FALCON 9 launch vehicle from the Air Force Eastern Test Range (AFETR). Payload-class satellites include a variety of spacecraft equipped with specific instruments for various scientific and technological missions. These include communications satellites like Starlink; space stations such as the ISS; scientific satellites like the Hubble; Earth observation satellites from companies like Planet Labs, Umbra, and HawkEye 360; GPS; miniature CubeSats for education and research; and military/defense satellites.

Loading next visibility...
Identifier
45386, 2020-019AC
Orbit
LEO
Country
Flag of USUS
Related business
Manufacturer
SpaceX/Seattle
Mission
Operational Commercial Communications
Bus & Motor
STARLINK, Unknown motor
Mass
260 kg wet, ~248 kg dry
Launch date (UTC)
2020-03-18 (6 years ago)
Launch vehicle
FALCON 9
Launch site
Air Force Eastern Test Range (AFETR)
Object type
Payload
Rocket body
Debris
Shape & HBR
Box + 1 Pan, 10.1 m
Radar Cross Section
13.562 m², Large (>1 m²)

Expand to show TLE details & history
Last TLE update: 4 hours ago

TLE from 4 hours ago
0 STARLINK-1272
1 45386U 20019AC  25288.66670139  .02135644  00000-0  11706+0 0  9990
2 45386  53.0545  77.6235 0001797  91.0451  63.5136 15.10286197  5856
Epoch: 2025-10-15T16:00Z
TLE epoch observation values (Epoch: 2025-10-15T16:00:03.000Z)
Latitude
20.10846°
Longitude
-22.71885°
Altitude
535.235 km
Speed
7.598 km/s
True Right ascension
16h 06m 55s
True Declination
19° 59' 39"
Sunlit
Object was in daylight at epoch
Visualization orbit readout
Latitude
Unknown
Longitude
Unknown
Altitude
Unknown
Speed
Unknown
Apparent Right ascension
Unknown
Apparent Declination
Unknown
Sunlit
N/A
Visualization observer readout
Local Sidereal Time
14:17:52
Azimuth
Unknown
Elevation
Unknown
Doppler factor
Unknown
Orbital elements
Apogee altitude
536.84 km
Perigee altitude
534.355 km
Semi-major axis
6,913.735 km
Eccentricity
0.00018
Inclination
53.0545°
RAAN
77.6235°
Arg. of periapsis
91.0451°
True anomaly
63.53203°
Mean anomaly
63.5136°
Eccentric anomaly
63.52282°
Mean motion
3.7755 °/min
Orbital period
95.35 mins
BSTAR
0.11706
Loading maneuver chart data...
Computing Atmospheric mass density...
Loading historical data...
Loading historical data...
Loading historical data...
Loading historical data...
Loading historical data...
Loading historical data...
Loading historical data...

Documentation

Showing up to 5 results
|